OK,59,73,632,59,2014-10-01T01:40:00,0,28071959,192574
OK,59,73,632,59,2014-10-01T01:45:00,0,28072402,192574
OK,59,73,632,59,2014-10-01T01:50:00,0,28072851,192574
OK,59,73,632,59,2014-10-01T01:55:00,0,28073298,192574
OK,59,73,632,59,2014-10-01T02:00:00,0,28073746,192574
OK,59,73,632,59,2014-10-01T02:05:00,0,28074064,192574
OK,64,68,632,64,2014-10-01T02:10:00,2,28074513,192574
OK,73,59,632,73,2014-10-01T02:15:00,1,28074953,192574
OK,66,66,632,66,2014-10-01T02:20:00,1,28075402,192574
OK,66,66,632,66,2014-10-01T02:25:00,0,28075851,192574
OK,63,69,632,63,2014-10-01T02:30:00,1,28076234,192574
OK,53,82,632,53,2014-10-01T02:35:00,0,28076683,192574
OK,52,83,632,52,2014-10-01T02:40:00,1,28077132,192574
OK,52,83,632,52,2014-10-01T02:45:00,0,28077581,192574
OK,75,58,632,75,2014-10-01T02:50:00,1,28077984,192574
OK,75,58,632,75,2014-10-01T02:55:00,0,28078433,192574
OK,51,85,632,51,2014-10-01T03:00:00,1,28078878,192574
OK,98,44,632,98,2014-10-01T03:05:00,2,28079326,192574
OK,97,44,632,97,2014-10-01T03:10:00,3,28079769,192574
OK,65,67,632,65,2014-10-01T03:15:00,2,28080218,192574
OK,69,63,632,69,2014-10-01T03:20:00,4,28080552,192574
OK,76,57,632,76,2014-10-01T03:25:00,3,28081001,192574
OK,101,43,632,101,2014-10-01T03:30:00,1,28081450,192574
OK,53,82,632,53,2014-10-01T03:35:00,5,28081897,192574
OK,73,59,632,73,2014-10-01T03:40:00,13,28082346,192574
OK,76,57,632,76,2014-10-01T03:45:00,16,28082779,192574
OK,69,63,632,69,2014-10-01T03:50:00,14,28083211,192574
OK,65,67,632,65,2014-10-01T03:55:00,15,28083660,192574
OK,69,63,632,69,2014-10-01T04:00:00,11,28084109,192574
OK,73,59,632,73,2014-10-01T04:05:00,7,28084550,192574
OK,76,57,632,76,2014-10-01T04:10:00,5,28084975,192574
OK,67,65,632,67,2014-10-01T04:15:00,11,28085424,192574
OK,68,64,632,68,2014-10-01T04:20:00,16,28085869,192574
OK,59,73,632,59,2014-10-01T04:25:00,13,28086318,192574
OK,76,57,632,76,2014-10-01T04:30:00,33,28086760,192574
OK,74,58,632,74,2014-10-01T04:35:00,37,28087209,192574
OK,75,58,632,75,2014-10-01T04:40:00,23,28087654,192574
OK,77,56,632,77,2014-10-01T04:45:00,21,28088103,192574
OK,108,40,632,108,2014-10-01T04:50:00,37,28088527,192574
OK,146,29,632,146,2014-10-01T04:55:00,44,28088976,192574
OK,140,31,632,140,2014-10-01T05:00:00,45,28089406,192574
OK,131,33,632,131,2014-10-01T05:05:00,40,28089855,192574
OK,142,30,632,142,2014-10-01T05:10:00,40,28090304,192574
OK,148,29,632,148,2014-10-01T05:15:00,39,28090648,192574
OK,175,24,632,175,2014-10-01T05:20:00,30,28091097,192574
OK,216,20,632,216,2014-10-01T05:25:00,34,28091546,192574
OK,219,19,632,219,2014-10-01T05:30:00,36,28091963,192574
OK,231,18,632,231,2014-10-01T05:35:00,39,28092412,192574
OK,234,18,632,234,2014-10-01T05:40:00,23,28092856,192574
OK,235,18,632,235,2014-10-01T05:45:00,44,28093297,192574
OK,254,17,632,254,2014-10-01T05:50:00,38,28093728,192574
OK,255,17,632,255,2014-10-01T05:55:00,37,28094177,192574
OK,253,17,632,253,2014-10-01T06:00:00,30,28094588,192574
OK,237,18,632,237,2014-10-01T06:05:00,32,28095033,192574
OK,209,20,632,209,2014-10-01T06:10:00,34,28095480,192574
OK,219,19,632,219,2014-10-01T06:15:00,35,28095929,192574
OK,233,18,632,233,2014-10-01T06:20:00,45,28096342,192574
OK,226,19,632,226,2014-10-01T06:25:00,43,28096791,192574
OK,246,17,632,246,2014-10-01T06:30:00,36,28097225,192574
OK,238,18,632,238,2014-10-01T06:35:00,34,28097674,192574
OK,217,20,632,217,2014-10-01T06:40:00,29,28098123,192574
OK,186,23,632,186,2014-10-01T06:45:00,21,28098560,192574
OK,183,23,632,183,2014-10-01T06:50:00,26,28099004,192574
OK,192,22,632,192,2014-10-01T06:55:00,30,28099452,192574
OK,215,20,632,215,2014-10-01T07:00:00,23,28099795,192574
OK,175,24,632,175,2014-10-01T07:05:00,30,28100244,192574
OK,112,38,632,112,2014-10-01T07:10:00,29,28100551,192574
OK,76,57,632,76,2014-10-01T07:15:00,28,28101000,192574
OK,76,57,632,76,2014-10-01T07:20:00,31,28101371,192574
OK,76,57,632,76,2014-10-01T07:25:00,30,28101820,192574
OK,89,48,632,89,2014-10-01T07:30:00,27,28102256,192574
OK,94,46,632,94,2014-10-01T07:35:00,29,28102705,192574
OK,83,52,632,83,2014-10-01T07:40:00,37,28103132,192574
OK,84,51,632,84,2014-10-01T07:45:00,34,28103579,192574
OK,96,45,632,96,2014-10-01T07:50:00,40,28104024,192574
OK,98,44,632,98,2014-10-01T07:55:00,40,28104469,192574
OK,93,46,632,93,2014-10-01T08:00:00,32,28104910,192574
OK,90,48,632,90,2014-10-01T08:05:00,24,28105355,192574
OK,74,58,632,74,2014-10-01T08:10:00,19,28105795,192574
OK,76,57,632,76,2014-10-01T08:15:00,24,28106244,192574
OK,76,57,632,76,2014-10-01T08:20:00,27,28106681,192574
OK,64,68,632,64,2014-10-01T08:25:00,18,28107087,192574
OK,73,59,632,73,2014-10-01T08:30:00,20,28107519,192574
OK,90,48,632,90,2014-10-01T08:35:00,17,28107968,192574
OK,79,55,632,79,2014-10-01T08:40:00,22,28108407,192574
OK,77,56,632,77,2014-10-01T08:45:00,19,28108856,192574
OK,96,45,632,96,2014-10-01T08:50:00,17,28109284,192574
OK,72,60,632,72,2014-10-01T08:55:00,19,28109733,192574
OK,66,66,632,66,2014-10-01T09:00:00,26,28110076,192574
OK,64,68,632,64,2014-10-01T09:05:00,15,28110525,192574
OK,86,50,632,86,2014-10-01T09:10:00,12,28110948,192574
OK,79,55,632,79,2014-10-01T09:15:00,15,28111397,192574
OK,77,56,632,77,2014-10-01T09:20:00,10,28111826,192574
OK,92,47,632,92,2014-10-01T09:25:00,14,28112275,192574
OK,89,48,632,89,2014-10-01T09:30:00,20,28112616,192574
OK,99,44,632,99,2014-10-01T09:35:00,16,28113065,192574
OK,101,43,632,101,2014-10-01T09:40:00,7,28113489,192574
OK,87,50,632,87,2014-10-01T09:45:00,25,28113938,192574
OK,71,61,632,71,2014-10-01T09:50:00,33,28114370,192574
OK,80,54,632,80,2014-10-01T09:55:00,21,28114819,192574
OK,82,53,632,82,2014-10-01T10:00:00,13,28115173,192574
OK,88,49,632,88,2014-10-01T10:05:00,23,28115622,192574
OK,91,47,632,91,2014-10-01T10:10:00,15,28116034,192574
OK,101,43,632,101,2014-10-01T10:15:00,8,28116483,192574
OK,104,41,632,104,2014-10-01T10:20:00,21,28116891,192574
OK,97,44,632,97,2014-10-01T10:25:00,18,28117340,192574
OK,78,55,632,78,2014-10-01T10:30:00,9,28117765,192574
OK,115,37,632,115,2014-10-01T10:35:00,18,28118214,192574
OK,106,41,632,106,2014-10-01T10:40:00,23,28118659,192574
OK,88,49,632,88,2014-10-01T10:45:00,19,28119106,192574
OK,68,64,632,68,2014-10-01T10:50:00,19,28119550,192574
OK,66,66,632,66,2014-10-01T10:55:00,26,28119998,192574
OK,89,48,632,89,2014-10-01T11:00:00,28,28120446,192574
OK,87,50,632,87,2014-10-01T11:05:00,22,28120895,192574
OK,81,53,632,81,2014-10-01T11:10:00,12,28121278,192574
OK,73,59,632,73,2014-10-01T11:15:00,13,28121727,192574
OK,90,48,632,90,2014-10-01T11:20:00,22,28122165,192574
OK,92,47,632,92,2014-10-01T11:25:00,27,28122614,192574
OK,70,62,632,70,2014-10-01T11:30:00,24,28123055,192574
OK,64,68,632,64,2014-10-01T11:35:00,17,28123504,192574
OK,58,75,632,58,2014-10-01T11:40:00,8,28123936,192574
OK,89,48,632,89,2014-10-01T11:45:00,12,28124385,192574
OK,87,50,632,87,2014-10-01T11:50:00,13,28124787,192574
OK,87,50,632,87,2014-10-01T11:55:00,15,28125236,192574
OK,101,43,632,101,2014-10-01T12:00:00,18,28125665,192574
OK,68,64,632,68,2014-10-01T12:05:00,18,28126114,192574
OK,74,58,632,74,2014-10-01T12:10:00,19,28126466,192574
OK,78,55,632,78,2014-10-01T12:15:00,21,28126915,192574
OK,88,49,632,88,2014-10-01T12:20:00,19,28127364,192574
OK,95,45,632,95,2014-10-01T12:25:00,10,28127813,192574
OK,88,49,632,88,2014-10-01T12:30:00,21,28128241,192574
OK,76,57,632,76,2014-10-01T12:35:00,22,28128690,192574
OK,75,58,632,75,2014-10-01T12:40:00,12,28129125,192574
OK,106,41,632,106,2014-10-01T12:45:00,11,28129574,192574
OK,89,48,632,89,2014-10-01T12:50:00,15,28130008,192574
OK,76,57,632,76,2014-10-01T12:55:00,17,28130457,192574
OK,70,62,632,70,2014-10-01T13:00:00,12,28130885,192574
OK,74,58,632,74,2014-10-01T13:05:00,13,28131334,192574
OK,74,58,632,74,2014-10-01T13:10:00,17,28131771,192574
OK,99,44,632,99,2014-10-01T13:15:00,18,28132220,192574
OK,104,41,632,104,2014-10-01T13:20:00,18,28132658,192574
OK,79,55,632,79,2014-10-01T13:25:00,19,28133105,192574
OK,76,57,632,76,2014-10-01T13:30:00,18,28133543,192574
OK,82,53,632,82,2014-10-01T13:35:00,10,28133992,192574
OK,69,63,632,69,2014-10-01T13:40:00,16,28134431,192574
OK,74,58,632,74,2014-10-01T13:45:00,20,28134880,192574
OK,75,58,632,75,2014-10-01T13:50:00,20,28135299,192574
OK,78,55,632,78,2014-10-01T13:55:00,29,28135748,192574
OK,71,61,632,71,2014-10-01T14:00:00,21,28136185,192574
OK,82,53,632,82,2014-10-01T14:05:00,10,28136634,192574
OK,70,62,632,70,2014-10-01T14:10:00,24,28137074,192574
OK,95,45,632,95,2014-10-01T14:15:00,21,28137523,192574
OK,88,49,632,88,2014-10-01T14:20:00,18,28137957,192574
OK,84,51,632,84,2014-10-01T14:25:00,21,28138406,192574
OK,74,58,632,74,2014-10-01T14:30:00,29,28138834,192574
OK,75,58,632,75,2014-10-01T14:35:00,18,28139283,192574
OK,102,42,632,102,2014-10-01T14:40:00,0,28139694,192574
OK,78,55,632,78,2014-10-01T14:45:00,25,28140143,192574
OK,78,55,632,78,2014-10-01T14:50:00,26,28140585,192574
OK,67,65,632,67,2014-10-01T14:55:00,25,28141034,192574
OK,77,56,632,77,2014-10-01T15:00:00,32,28141460,192574
OK,81,53,632,81,2014-10-01T15:05:00,26,28141909,192574
OK,107,40,632,107,2014-10-01T15:10:00,18,28142337,192574
OK,77,56,632,77,2014-10-01T15:15:00,19,28142786,192574
OK,77,56,632,77,2014-10-01T15:20:00,24,28143213,192574
OK,62,70,632,62,2014-10-01T15:25:00,22,28143662,192574
OK,82,53,632,82,2014-10-01T15:30:00,19,28144110,192574
OK,70,62,632,70,2014-10-01T15:35:00,15,28144559,192574
OK,75,58,632,75,2014-10-01T15:40:00,19,28144980,192574
OK,85,51,632,85,2014-10-01T15:45:00,16,28145394,192574
OK,85,51,632,85,2014-10-01T15:50:00,17,28145843,192574
OK,73,59,632,73,2014-10-01T15:55:00,13,28146292,192574
OK,65,67,632,65,2014-10-01T16:00:00,11,28146741,192574
OK,64,68,632,64,2014-10-01T16:05:00,10,28147149,192574
OK,72,60,632,72,2014-10-01T16:10:00,16,28147593,192574
OK,72,60,632,72,2014-10-01T16:15:00,21,28148042,192574
OK,62,70,632,62,2014-10-01T16:20:00,17,28148443,192574
OK,69,63,632,69,2014-10-01T16:25:00,15,28148892,192574
OK,69,63,632,69,2014-10-01T16:30:00,13,28149331,192574
OK,70,62,632,70,2014-10-01T16:35:00,8,28149780,192574
OK,63,69,632,63,2014-10-01T16:40:00,10,28150206,192574
OK,67,65,632,67,2014-10-01T16:45:00,9,28150655,192574
OK,68,64,632,68,2014-10-01T16:50:00,10,28151073,192574
OK,64,68,632,64,2014-10-01T16:55:00,10,28151522,192574
OK,76,57,632,76,2014-10-01T17:05:00,7,28151971,192574
OK,79,55,632,79,2014-10-01T17:10:00,10,28152420,192574
OK,80,54,632,80,2014-10-01T17:15:00,8,28152866,192574
OK,60,72,632,60,2014-10-01T17:20:00,6,28153313,192574
OK,72,60,632,72,2014-10-01T17:25:00,8,28153762,192574
OK,80,54,632,80,2014-10-01T17:30:00,6,28154172,192574
OK,108,40,632,108,2014-10-01T17:35:00,3,28154621,192574
OK,79,55,632,79,2014-10-01T17:40:00,5,28155063,192574
OK,69,63,632,69,2014-10-01T17:45:00,3,28155511,192574
OK,85,51,632,85,2014-10-01T17:50:00,6,28155929,192574
OK,81,53,632,81,2014-10-01T17:55:00,5,28156378,192574
OK,62,70,632,62,2014-10-01T18:00:00,4,28156826,192574
OK,65,67,632,65,2014-10-01T18:05:00,6,28157265,192574
OK,60,72,632,60,2014-10-01T18:10:00,5,28157695,192574
OK,58,75,632,58,2014-10-01T18:15:00,7,28158143,192574
OK,61,71,632,61,2014-10-01T18:20:00,11,28158587,192574
OK,64,68,632,64,2014-10-01T18:25:00,9,28159033,192574
OK,68,64,632,68,2014-10-01T18:30:00,8,28159479,192574
OK,73,59,632,73,2014-10-01T18:35:00,8,28159814,192574
OK,91,47,632,91,2014-10-01T18:40:00,5,28160263,192574
OK,51,85,632,51,2014-10-01T18:45:00,4,28160712,192574
OK,50,87,632,50,2014-10-01T18:50:00,5,28161150,192574
OK,62,70,632,62,2014-10-01T18:55:00,7,28161599,192574
OK,62,70,632,62,2014-10-01T19:00:00,3,28162016,192574
OK,54,80,632,54,2014-10-01T19:05:00,1,28162465,192574
OK,56,77,632,56,2014-10-01T19:10:00,4,28162859,192574
OK,56,77,632,56,2014-10-01T19:15:00,3,28163298,192574
OK,75,58,632,75,2014-10-01T19:20:00,1,28163746,192574
OK,74,58,632,74,2014-10-01T19:25:00,5,28164195,192574
OK,63,69,632,63,2014-10-01T19:30:00,7,28164626,192574
OK,59,73,632,59,2014-10-01T19:35:00,5,28165075,192574
OK,62,70,632,62,2014-10-01T19:40:00,7,28165500,192574
OK,62,70,632,62,2014-10-01T19:45:00,9,28165948,192574
OK,57,76,632,57,2014-10-01T19:50:00,5,28166389,192574
OK,72,60,632,72,2014-10-01T19:55:00,2,28166751,192574
OK,69,63,632,69,2014-10-01T20:00:00,0,28167200,192574
OK,73,59,632,73,2014-10-01T20:05:00,3,28167629,192574
OK,67,65,632,67,2014-10-01T20:10:00,5,28168062,192574
OK,65,67,632,65,2014-10-01T20:15:00,9,28168511,192574
OK,65,67,632,65,2014-10-01T20:20:00,9,28168956,192574
OK,69,63,632,69,2014-10-01T20:25:00,2,28169405,192574
OK,87,50,632,87,2014-10-01T20:30:00,4,28169853,192574
OK,63,69,632,63,2014-10-01T20:35:00,5,28170279,192574
OK,68,64,632,68,2014-10-01T20:40:00,10,28170724,192574
OK,55,79,632,55,2014-10-01T20:45:00,5,28171172,192574
OK,71,61,632,71,2014-10-01T20:50:00,2,28171609,192574
OK,66,66,632,66,2014-10-01T20:55:00,1,28172055,192574
OK,81,53,632,81,2014-10-01T21:00:00,2,28172503,192574
OK,55,79,632,55,2014-10-01T21:05:00,3,28172949,192574
OK,68,64,632,68,2014-10-01T21:10:00,1,28173395,192574
OK,68,64,632,68,2014-10-01T21:15:00,1,28173844,192574
OK,53,82,632,53,2014-10-01T21:20:00,2,28174285,192574
OK,58,75,632,58,2014-10-01T21:25:00,4,28174734,192574
OK,61,71,632,61,2014-10-01T21:30:00,0,28175160,192574
OK,61,71,632,61,2014-10-01T21:35:00,0,28175556,192574
OK,58,75,632,58,2014-10-01T21:40:00,1,28176005,192574
OK,58,75,632,58,2014-10-01T21:45:00,0,28176454,192574
OK,58,75,632,58,2014-10-01T21:50:00,0,28176903,192574
OK,74,58,632,74,2014-10-01T21:55:00,2,28177259,192574
OK,74,58,632,74,2014-10-01T22:00:00,0,28177699,192574
OK,38,114,632,38,2014-10-01T22:05:00,1,28178145,192574
OK,57,76,632,57,2014-10-01T22:10:00,2,28178594,192574
OK,64,68,632,64,2014-10-01T22:15:00,2,28179041,192574
OK,52,83,632,52,2014-10-01T22:20:00,0,28179475,192574
OK,52,83,632,52,2014-10-01T22:25:00,0,28179918,192574
OK,54,80,632,54,2014-10-01T22:30:00,1,28180365,192574
OK,54,80,632,54,2014-10-01T22:35:00,0,28180763,192574
OK,63,69,632,63,2014-10-01T22:40:00,1,28181212,192574
OK,55,79,632,55,2014-10-01T22:45:00,1,28181636,192574
OK,55,79,632,55,2014-10-01T22:50:00,3,28182084,192574
OK,34,128,632,34,2014-10-01T22:55:00,1,28182531,192574
OK,34,128,632,34,2014-10-01T23:00:00,1,28182980,192574
OK,34,128,632,34,2014-10-01T23:05:00,0,28183397,192574
OK,34,128,632,34,2014-10-01T23:10:00,0,28183830,192574
OK,34,128,632,34,2014-10-01T23:15:00,0,28184275,192574
OK,34,128,632,34,2014-10-01T23:20:00,0,28184724,192574
OK,34,128,632,34,2014-10-01T23:25:00,0,28185159,192574
OK,34,128,632,34,2014-10-01T23:30:00,0,28185607,192574
OK,60,72,632,60,2014-10-01T23:40:00,1,28186430,192574
OK,60,72,632,60,2014-10-01T23:45:00,1,28186879,192574
OK,64,68,632,64,2014-10-01T23:50:00,3,28187277,192574
OK,64,68,632,64,2014-10-01T23:55:00,0,28187719,192574
OK,64,68,632,64,2014-10-02T00:00:00,0,28188168,192574
OK,54,80,632,54,2014-10-02T00:05:00,1,28188609,192574
OK,54,80,632,54,2014-10-02T00:10:00,0,28189045,192574
OK,54,80,632,54,2014-10-02T00:15:00,0,28189494,192574
OK,54,80,632,54,2014-10-02T00:20:00,0,28189916,192574
OK,54,80,632,54,2014-10-02T00:25:00,0,28190363,192574
OK,54,80,632,54,2014-10-02T00:30:00,0,28190718,192574
OK,54,80,632,54,2014-10-02T00:35:00,0,28191167,192574
OK,54,80,632,54,2014-10-02T00:40:00,0,28191616,192574
OK,54,80,632,54,2014-10-02T00:45:00,0,28191922,192574
OK,54,80,632,54,2014-10-02T00:50:00,0,28192371,192574
OK,54,80,632,54,2014-10-02T00:55:00,0,28192804,192574
OK,54,80,632,54,2014-10-02T01:00:00,0,28193238,192574
OK,54,80,632,54,2014-10-02T01:05:00,0,28193615,192574
OK,54,80,632,54,2014-10-02T01:10:00,0,28194064,192574
OK,54,80,632,54,2014-10-02T01:15:00,0,28194513,192574
OK,54,80,632,54,2014-10-02T01:20:00,0,28194957,192574
OK,54,80,632,54,2014-10-02T01:25:00,0,28195198,192574
OK,54,80,632,54,2014-10-02T01:30:00,0,28195647,192574
OK,54,80,632,54,2014-10-02T01:35:00,0,28196096,192574
OK,54,80,632,54,2014-10-02T01:40:00,0,28196380,192574
OK,65,67,632,65,2014-10-02T01:45:00,1,28196829,192574
OK,65,67,632,65,2014-10-02T01:50:00,0,28197252,192574
OK,48,90,632,48,2014-10-02T01:55:00,1,28197701,192574
OK,48,90,632,48,2014-10-02T02:00:00,0,28198149,192574
OK,55,79,632,55,2014-10-02T02:05:00,1,28198597,192574
OK,55,79,632,55,2014-10-02T02:10:00,0,28199046,192574
OK,58,75,632,58,2014-10-02T02:15:00,2,28199418,192574
OK,55,79,632,55,2014-10-02T02:20:00,0,28199860,192574
OK,55,79,632,55,2014-10-02T02:25:00,0,28200302,192574
OK,59,73,632,59,2014-10-02T02:30:00,5,28200745,192574
OK,57,76,632,57,2014-10-02T02:35:00,0,28201194,192574
OK,57,76,632,57,2014-10-02T02:45:00,0,28201625,192574
OK,94,46,632,94,2014-10-02T02:50:00,1,28202074,192574
OK,94,46,632,94,2014-10-02T02:55:00,0,28202523,192574
OK,62,70,632,62,2014-10-02T03:00:00,2,28202965,192574
OK,66,66,632,66,2014-10-02T03:05:00,0,28203413,192574
OK,66,66,632,66,2014-10-02T03:15:00,0,28203848,192574
OK,98,44,632,98,2014-10-02T03:30:00,0,28204297,192574
OK,68,64,632,68,2014-10-02T03:35:00,12,28204746,192574
OK,66,66,632,66,2014-10-02T03:40:00,5,28205195,192574
OK,76,57,632,76,2014-10-02T03:45:00,11,28205623,192574
OK,78,55,632,78,2014-10-02T03:50:00,8,28206059,192574
OK,78,55,632,78,2014-10-02T03:55:00,0,28206453,192574
OK,53,82,632,53,2014-10-02T04:00:00,5,28206902,192574
OK,66,66,632,66,2014-10-02T04:05:00,0,28207351,192574
OK,68,64,632,68,2014-10-02T04:10:00,7,28207770,192574
OK,56,77,632,56,2014-10-02T04:15:00,2,28208219,192574
OK,63,69,632,63,2014-10-02T04:20:00,8,28208646,192574
OK,76,57,632,76,2014-10-02T04:25:00,2,28209095,192574
OK,72,60,632,72,2014-10-02T04:30:00,19,28209533,192574
OK,63,69,632,63,2014-10-02T04:35:00,4,28209982,192574
OK,76,57,632,76,2014-10-02T04:40:00,26,28210405,192574
OK,67,65,632,67,2014-10-02T04:45:00,5,28210854,192574
OK,98,44,632,98,2014-10-02T04:50:00,0,28211279,192574
OK,120,36,632,120,2014-10-02T04:55:00,28,28211723,192574
OK,151,28,632,151,2014-10-02T05:00:00,6,28212101,192574
OK,96,45,632,96,2014-10-02T05:05:00,22,28212550,192574
OK,83,52,632,83,2014-10-02T05:10:00,7,28212979,192574
OK,110,39,632,110,2014-10-02T05:15:00,33,28213428,192574
OK,101,43,632,101,2014-10-02T05:20:00,6,28213866,192574
OK,202,21,632,202,2014-10-02T05:25:00,30,28214315,192574
OK,211,20,632,211,2014-10-02T05:30:00,11,28214728,192574
OK,208,20,632,208,2014-10-02T05:35:00,0,28215177,192574
OK,212,20,632,212,2014-10-02T05:40:00,42,28215593,192574
OK,217,20,632,217,2014-10-02T05:45:00,14,28216042,192574
OK,217,20,632,217,2014-10-02T05:50:00,0,28216381,192574
OK,204,21,632,204,2014-10-02T05:55:00,30,28216821,192574
OK,210,20,632,210,2014-10-02T06:00:00,27,28217268,192574
OK,232,18,632,232,2014-10-02T06:05:00,28,28217717,192574
OK,236,18,632,236,2014-10-02T06:10:00,7,28218156,192574
OK,204,21,632,204,2014-10-02T06:15:00,44,28218605,192574
OK,203,21,632,203,2014-10-02T06:20:00,41,28219025,192574
OK,220,19,632,220,2014-10-02T06:25:00,26,28219474,192574
OK,221,19,632,221,2014-10-02T06:30:00,35,28219847,192574
OK,207,21,632,207,2014-10-02T06:35:00,35,28220296,192574
OK,222,19,632,222,2014-10-02T06:40:00,41,28220730,192574
OK,210,20,632,210,2014-10-02T06:45:00,35,28221179,192574
OK,193,22,632,193,2014-10-02T07:00:00,53,28221846,192574
OK,189,23,632,189,2014-10-02T07:05:00,50,28221992,192574
OK,128,34,632,128,2014-10-02T07:10:00,24,28222440,192574
OK,90,48,632,90,2014-10-02T07:15:00,7,28222889,192574
OK,52,83,632,52,2014-10-02T07:20:00,0,28223320,192574
OK,89,48,632,89,2014-10-02T07:25:00,24,28223755,192574
OK,94,46,632,94,2014-10-02T07:30:00,12,28224203,192574
OK,81,53,632,81,2014-10-02T07:35:00,26,28224558,192574
OK,74,58,632,74,2014-10-02T07:40:00,17,28225007,192574
OK,64,68,632,64,2014-10-02T07:45:00,0,28225435,192574
OK,89,48,632,89,2014-10-02T07:50:00,32,28225778,192574
OK,78,55,632,78,2014-10-02T07:55:00,27,28226227,192574
OK,71,61,632,71,2014-10-02T08:00:00,8,28226668,192574
OK,76,57,632,76,2014-10-02T08:05:00,13,28227117,192574
OK,83,52,632,83,2014-10-02T08:10:00,2,28227532,192574
OK,71,61,632,71,2014-10-02T08:15:00,13,28227981,192574
OK,90,48,632,90,2014-10-02T08:20:00,6,28228340,192574
OK,72,60,632,72,2014-10-02T08:25:00,15,28228789,192574
OK,90,48,632,90,2014-10-02T08:30:00,5,28229199,192574
OK,69,63,632,69,2014-10-02T08:35:00,19,28229648,192574
OK,82,53,632,82,2014-10-02T08:40:00,7,28229998,192574
OK,79,55,632,79,2014-10-02T08:45:00,0,28230447,192574
OK,79,55,632,79,2014-10-02T08:50:00,12,28230813,192574
OK,73,59,632,73,2014-10-02T08:55:00,4,28231260,192574
OK,82,53,632,82,2014-10-02T09:00:00,15,28231685,192574
OK,64,68,632,64,2014-10-02T09:05:00,4,28232134,192574
OK,72,60,632,72,2014-10-02T09:15:00,13,28232476,192574
OK,50,87,632,50,2014-10-02T09:20:00,3,28232925,192574
OK,81,53,632,81,2014-10-02T09:25:00,13,28233374,192574
OK,81,53,632,81,2014-10-02T09:30:00,5,28233798,192574
OK,49,88,632,49,2014-10-02T09:35:00,1,28234247,192574
OK,49,88,632,49,2014-10-02T09:40:00,0,28234580,192574
OK,83,52,632,83,2014-10-02T09:45:00,14,28235029,192574
OK,71,61,632,71,2014-10-02T09:50:00,5,28235456,192574
OK,91,47,632,91,2014-10-02T09:55:00,16,28235905,192574
OK,74,58,632,74,2014-10-02T10:00:00,7,28236348,192574
OK,178,24,632,178,2014-10-02T10:05:00,0,28236795,192574
OK,82,53,632,82,2014-10-02T10:10:00,20,28237197,192574
OK,78,55,632,78,2014-10-02T10:15:00,14,28237645,192574
OK,68,64,632,68,2014-10-02T10:20:00,19,28238094,192574
OK,79,55,632,79,2014-10-02T10:25:00,12,28238541,192574
OK,98,44,632,98,2014-10-02T10:30:00,1,28238982,192574
OK,77,56,632,77,2014-10-02T10:35:00,20,28239431,192574
OK,76,57,632,76,2014-10-02T10:40:00,23,28239861,192574
OK,76,57,632,76,2014-10-02T10:45:00,18,28240310,192574
OK,54,80,632,54,2014-10-02T10:50:00,3,28240754,192574
OK,79,55,632,79,2014-10-02T10:55:00,30,28241203,192574
OK,69,63,632,69,2014-10-02T11:00:00,12,28241635,192574
OK,105,41,632,105,2014-10-02T11:05:00,0,28242083,192574
OK,76,57,632,76,2014-10-02T11:10:00,18,28242479,192574
OK,70,62,632,70,2014-10-02T11:15:00,10,28242928,192574
OK,91,47,632,91,2014-10-02T11:20:00,9,28243377,192574
OK,91,47,632,91,2014-10-02T11:25:00,5,28243702,192574
OK,91,47,632,91,2014-10-02T11:30:00,0,28244140,192574
OK,77,56,632,77,2014-10-02T11:35:00,23,28244569,192574
OK,78,55,632,78,2014-10-02T11:40:00,11,28245018,192574
OK,81,53,632,81,2014-10-02T11:45:00,0,28245467,192574
OK,88,49,632,88,2014-10-02T11:50:00,32,28245873,192574
OK,96,45,632,96,2014-10-02T11:55:00,23,28246322,192574
OK,84,51,632,84,2014-10-02T12:00:00,25,28246759,192574
OK,84,51,632,84,2014-10-02T12:05:00,11,28247208,192574
OK,95,45,632,95,2014-10-02T12:10:00,0,28247654,192574
OK,86,50,632,86,2014-10-02T12:15:00,16,28248084,192574
OK,88,49,632,88,2014-10-02T12:20:00,6,28248533,192574
OK,93,46,632,93,2014-10-02T12:25:00,26,28248980,192574
OK,78,55,632,78,2014-10-02T12:30:00,7,28249408,192574
OK,88,49,632,88,2014-10-02T12:35:00,7,28249852,192574
OK,88,49,632,88,2014-10-02T12:40:00,3,28250254,192574
OK,68,64,632,68,2014-10-02T12:45:00,22,28250669,192574
OK,87,50,632,87,2014-10-02T12:50:00,11,28251448,192574
OK,86,50,632,86,2014-10-02T13:00:00,26,28251488,192574
OK,65,67,632,65,2014-10-02T13:20:00,20,28251529,192574
OK,68,64,632,68,2014-10-02T13:25:00,10,28251635,192574
OK,83,52,632,83,2014-10-02T13:30:00,10,28251994,192574
OK,78,55,632,78,2014-10-02T13:35:00,6,28252131,192574
OK,64,68,632,64,2014-10-02T13:40:00,0,28252578,192574
OK,69,63,632,69,2014-10-02T13:45:00,21,28253020,192574
OK,73,59,632,73,2014-10-02T13:50:00,16,28253437,192574
OK,75,58,632,75,2014-10-02T13:55:00,26,28253886,192574
OK,100,43,632,100,2014-10-02T14:10:00,20,28254617,192574
OK,98,44,632,98,2014-10-02T14:15:00,18,28254740,192574
OK,85,51,632,85,2014-10-02T14:20:00,17,28255189,192574
OK,85,51,632,85,2014-10-02T14:25:00,9,28255638,192574
OK,72,60,632,72,2014-10-02T14:30:00,18,28256066,192574
OK,82,53,632,82,2014-10-02T14:35:00,6,28256515,192574